Helicity
108 95 103 111 105 121 169 199 194 147 165 152 170 233 204 164 156 144 161 182 142 180 246 294 290 210 149
60 46 52 83 112 103 113 135 164 153 127 123 151 156 191 160 157 158 149 169 181 278 375 346 311 291 152
133 96 67 58 51 71 97 115 111 105 114 114 113 121 112 140 100 123 155 188 247 423 628 447 389 256 151
119 96 88 63 77 72 56 87 95 108 100 109 111 112 71 29 65 100 205 240 362 616 678 660 403 271 165
57 61 46 38 59 62 69 36 37 93 98 116 136 145 174 71 58 134 215 400 324 773 635 602 377 351 242
46 31 26 42 41 48 56 48 -9 66 94 120 161 171 163 194 184 185 275 581 830 598 650 426 337 324 231
73 55 45 52 62 68 71 80 73 68 41 80 149 135 163 255 178 309 464 762 703 503 355 354 281 274 224
66 90 81 76 72 103 108 111 91 65 111 77 100 147 251 277 250 402 579 668 535 377 290 308 298 231 149
27 39 40 43 42 50 105 115 95 79 135 133 127 248 299 329 323 360 499 576 514 338 309 277 225 118 82
-31 -23 -2 23 31 74 121 148 152 32 130 167 256 358 247 296 470 494 543 544 387 278 191 156 120 149 181
-38 -37 -11 10 48 65 74 105 48 -72 17 257 319 419 338 292 429 606 592 418 353 210 134 85 75 156 182
-34 -41 -26 10 38 39 12 -51 -27 -63 -50 305 263 455 504 433 377 506 474 423 291 196 118 64 69 78 107
-27 -31 -28 -22 -30 -66 -50 22 182 247 317 326 257 372 380 337 366 412 450 252 172 175 224 189 178 172 135
-38 -41 -65 -57 -52 -81 -50 153 226 252 286 284 282 262 228 204 209 249 152 126 118 128 163 177 168 128 111
-41 -80 -67 -65 -60 -53 81 129 141 133 113 128 181 169 135 69 107 134 127 101 110 165 159 144 105 102 112
-37 -58 -50 -43 -14 7 89 65 75 43 43 82 75 71 87 149 106 99 113 121 113 132 144 139 123 112 112
-28 -34 -21 -5 -3 48 97 59 23 27 47 55 58 29 59 82 81 61 82 93 121 125 122 134 137 126 110
Wind_Speed
105 103 102 101 102 98 95 95 97 94 92 90 94 82 77 76 78 84 80 74 71 67 65 63 56 49 45
114 106 100 95 95 97 97 94 92 96 96 97 96 94 88 82 90 79 83 79 73 64 63 61 59 53 54
111 105 106 101 99 93 94 93 92 88 94 99 101 106 103 103 89 89 77 77 69 65 61 59 56 53 52
108 111 106 104 100 102 101 94 96 90 95 101 101 102 99 104 103 87 72 67 66 67 56 56 58 54 53
106 107 108 108 105 104 108 110 109 94 97 97 98 96 98 91 96 83 77 70 62 59 54 49 53 52 53
111 109 111 106 106 105 107 105 118 93 91 97 86 90 89 86 79 78 64 54 55 55 48 44 43 47 50
112 110 114 108 108 110 106 107 111 105 95 96 78 92 89 82 76 54 47 49 49 50 40 40 41 38 44
101 104 106 108 102 104 107 106 112 110 90 114 95 94 79 77 72 39 33 38 39 44 43 35 34 36 42
97 106 113 113 107 105 101 102 111 104 81 86 83 79 75 69 59 37 34 35 34 39 39 36 34 32 33
106 105 100 102 102 93 88 88 92 109 77 77 73 64 71 64 55 34 33 31 28 30 29 28 27 28 31
99 98 97 93 89 88 86 84 99 105 92 60 63 61 64 55 49 39 33 31 30 26 23 24 26 24 23
92 93 93 92 90 89 87 82 82 84 87 54 68 58 52 52 46 40 27 24 28 27 22 20 22 19 20
88 90 88 84 78 71 65 60 57 57 54 49 52 30 35 30 35 25 21 29 28 23 20 21 23 22 22
80 75 73 67 62 55 58 51 47 45 39 32 23 18 18 15 10 10 15 20 22 21 21 22 24 23 21
69 71 65 57 50 50 49 43 36 29 21 19 15 12 12 8 3 3 7 17 13 15 20 22 24 22 22
67 62 56 52 53 49 41 27 22 20 16 15 13 11 13 17 13 5 12 14 12 12 17 20 24 22 21
56 50 48 47 41 39 30 21 15 14 15 18 20 17 16 18 24 21 15 16 13 15 17 21 26 25 21
Wind_Direction
302 303 300 299 298 296 294 291 290 287 285 284 283 279 278 275 271 269 267 262 259 256 249 246 243 248 255
302 303 302 301 300 298 296 294 291 289 287 285 285 282 281 278 274 268 267 264 257 249 241 239 243 249 255
303 303 302 303 301 299 297 296 294 291 289 287 284 281 283 278 277 270 266 262 250 241 241 238 243 246 255
304 302 303 302 301 298 297 295 294 293 289 287 286 284 280 279 277 274 263 257 249 243 235 244 242 251 254
303 303 301 300 299 298 295 294 291 294 291 289 287 286 283 282 278 275 267 255 246 236 235 246 243 248 251
301 300 299 300 299 297 296 296 291 295 292 288 289 285 285 282 283 280 270 249 240 237 236 245 243 245 250
299 298 297 298 298 296 295 293 290 289 293 288 290 285 286 285 283 277 261 245 247 237 237 241 238 242 246
301 299 298 297 296 295 294 294 290 287 289 281 285 285 288 284 277 267 250 245 247 240 245 237 235 242 247
302 300 298 295 295 296 292 292 289 288 289 286 286 287 284 284 280 257 247 247 250 246 244 237 242 235 244
303 303 301 298 294 295 296 293 292 282 288 284 286 286 280 281 273 264 258 249 251 248 234 227 223 239 251
302 301 301 300 300 300 300 295 278 262 271 283 283 278 272 282 271 270 262 255 255 236 227 219 226 239 248
297 299 298 298 300 298 287 267 266 255 255 278 274 271 276 275 276 268 260 255 240 242 232 224 235 237 251
297 296 294 286 281 274 275 283 298 298 291 285 276 282 280 279 274 253 243 248 245 240 241 248 256 264 266
290 285 283 276 269 259 264 308 312 309 308 306 309 300 296 307 269 194 233 253 246 253 257 264 269 275 272
288 287 281 270 258 261 294 308 310 306 321 337 352 354 359 357 349 223 247 285 258 261 273 276 280 279 279
290 284 276 268 268 274 297 332 320 310 310 308 317 317 308 325 341 30 312 314 310 288 292 287 289 289 286
286 278 273 269 252 262 271 303 343 339 306 293 300 320 341 336 322 333 332 324 321 311 305 302 302 298 291